Puerto Plata, Dominican Republic

3:04 AM AST on August 21, 2017 (GMT -0400)
Gregorio Luperon International

Weather History for MDPP - April, 2013

Change the Weather History Date:

Tuesday, April 30, 2013

  Actual Average Record
Temperature  
Mean Temperature 80 °F -  
Max Temperature 88 °F 84 °F 97 °F (2015)
Min Temperature 71 °F 73 °F 66 °F (2016)
Cooling Degree Days 14    
Growing Degree Days 30 (Base 50)    
Moisture  
Dew Point 72 °F    
Average Humidity 73    
Maximum Humidity 100    
Minimum Humidity 53    
Precipitation  
Precipitation 0.00 in - - ()
Sea Level Pressure  
Sea Level Pressure 29.96 in    
Wind  
Wind Speed 7 mph ()    
Max Wind Speed 18 mph    
Max Gust Speed -    
Visibility 7.2 miles    
Events      
Averages and records for this station are not official NWS values.
T = Trace of Precipitation, MM = Missing Value Source: Averaged Metar Reports

Daily Weather History Graph

Daily Weather History Graph

Search for Another Location

Airport or City:

Trip Planner

Search our weather history database for the weather conditions in past years. The results will help you decide how hot, cold, wet, or windy it might be!

Date:

Astronomy

Apr. 30, 2013 Rise Set
Actual Time 6:13 AM AST 7:05 PM AST
Civil Twilight 5:50 AM AST 7:28 PM AST
Nautical Twilight 5:23 AM AST 7:55 PM AST
Astronomical Twilight 4:56 AM AST 8:22 PM AST
Moon No Moon Rise 10:46 AM AST (4/30)
Length of Visible Light 13h 37m
Length of Day
12h 51m
Waning Gibbous, 70% of the Moon is Illuminated
Apr 30
Waning Gibbous
May 2
Last Quarter
May 9
New
May 18
First Quarter
May 25
Full

Hourly Weather History & Observations

Time (AST) Temp. Heat Index Dew Point Humidity Pressure Visibility Wind Dir Wind Speed Gust Speed Precip Events Conditions
2:00 AM 74 °F - 71 °F 86% 29.98 in 10 mi ESE 4.5 mph - -   Partly Cloudy
2:00 AM 73.4 °F - 69.8 °F 88% 29.98 in 6.2 mi ESE 4.6 mph - N/A   Scattered Clouds
5:00 AM 72 °F - 72 °F 100% 29.96 in 10 mi Calm Calm - -   Partly Cloudy
5:00 AM 73.4 °F - 69.8 °F 88% 29.95 in 6.2 mi Calm Calm - N/A   Scattered Clouds
8:00 AM 71.6 °F - 69.8 °F 94% 29.98 in 6.2 mi Calm Calm - N/A   Partly Cloudy
9:00 AM 82.4 °F 87.2 °F 71.6 °F 70% 29.98 in 6.2 mi ESE 8.1 mph - N/A   Partly Cloudy
10:00 AM 86.0 °F 93.4 °F 73.4 °F 66% 30.01 in 6.2 mi ESE 12.7 mph - N/A   Partly Cloudy
11:00 AM 86.0 °F 91.8 °F 71.6 °F 62% 29.98 in 6.2 mi East 11.5 mph - N/A   Partly Cloudy
12:00 PM 87.8 °F 95.6 °F 73.4 °F 62% 29.98 in 6.2 mi East 16.1 mph - N/A   Partly Cloudy
1:00 PM 87.8 °F 95.6 °F 73.4 °F 62% 29.95 in 6.2 mi ENE 16.1 mph - N/A   Partly Cloudy
2:00 PM 88 °F - 73 °F 53% 29.96 in 10 mi ENE 15.7 mph - -   Scattered Clouds
2:00 PM 87.8 °F 95.6 °F 73.4 °F 62% 29.95 in 6.2 mi ENE 16.1 mph - N/A   Partly Cloudy
3:00 PM 87.8 °F 95.6 °F 73.4 °F 62% 29.95 in 6.2 mi East 16.1 mph - N/A   Partly Cloudy
4:00 PM 86.0 °F 91.8 °F 71.6 °F 62% 29.92 in 6.2 mi East 17.3 mph - N/A   Partly Cloudy
5:00 PM 86 °F - 72 °F 55% 29.96 in 10 mi East 17.9 mph - -   Scattered Clouds
5:00 PM 86.0 °F 91.8 °F 71.6 °F 62% 29.95 in 6.2 mi East 17.3 mph - N/A   Partly Cloudy
6:00 PM 82.4 °F 88.2 °F 73.4 °F 74% 29.92 in 6.2 mi East 9.2 mph - N/A   Partly Cloudy
7:00 PM 80.6 °F 85.4 °F 73.4 °F 79% 29.92 in 6.2 mi East 11.5 mph - N/A   Partly Cloudy
8:00 PM 79 °F - 73 °F 77% 29.96 in 10 mi Calm Calm - -   Scattered Clouds
8:00 PM 78.8 °F - 73.4 °F 83% 29.95 in 6.2 mi Calm Calm - N/A   Unknown
11:00 PM 78 °F - 73 °F 80% 30.00 in 10 mi Calm Calm - -   Scattered Clouds
11:00 PM 78.8 °F - 73.4 °F 83% 29.98 in 6.2 mi Calm Calm - N/A   Partly Cloudy